This is the latest recevied weather packets stored in our database for station/object W8CWV-13. If no packets are shown the sender has not sent any weather packets the latest 10 day(s).
| Time | Temp. | Humidity | Pressure | Rain* | Wind** | Luminosity | Snow |
|---|---|---|---|---|---|---|---|
| 1778092383 | 20.56° C | 100% | 1012.2 hPa | - | - | - | - |
| 1778091805 | 19.44° C | 100% | 1012.5 hPa | - | - | - | - |
| 1778091230 | 20° C | 100% | 1012.3 hPa | - | - | - | - |
| 1778090660 | 20° C | 100% | 1012.7 hPa | - | - | - | - |
| 1778090088 | 20° C | 100% | 1013.1 hPa | - | - | - | - |
| 1778089513 | 20° C | 100% | 1013.4 hPa | - | - | - | - |
| 1778088941 | 20° C | 100% | 1014.6 hPa | - | - | - | - |
| 1778088369 | 20.56° C | 100% | 1015 hPa | - | - | - | - |
| 1778087798 | 20.56° C | 100% | 1015.1 hPa | - | - | - | - |
| 1778087230 | 21.11° C | 100% | 1015.4 hPa | - | - | - | - |
| 1778086654 | 21.67° C | 100% | 1015.5 hPa | - | - | - | - |
| 1778086084 | 22.78° C | 100% | 1016.3 hPa | - | - | - | - |
| 1778085513 | 23.89° C | 100% | 1016 hPa | - | - | - | - |
| 1778084938 | 23.33° C | 100% | 1015.6 hPa | - | - | - | - |
| 1778084359 | 22.78° C | 100% | 1015.8 hPa | - | - | - | - |
| 1778083788 | 23.33° C | 100% | 1015.5 hPa | - | - | - | - |
| 1778083214 | 23.33° C | 100% | 1015.1 hPa | - | - | - | - |
| 1778082639 | 22.22° C | 100% | 1013.3 hPa | - | - | - | - |
| 1778082065 | 21.11° C | 100% | 1012.9 hPa | - | - | - | - |
| 1778081491 | 20° C | 100% | 1013.4 hPa | - | - | - | - |
| 1778080921 | 20° C | 100% | 1013.3 hPa | - | - | - | - |
| 1778080348 | 20.56° C | 100% | 1013.4 hPa | - | - | - | - |
| 1778079776 | 20.56° C | 100% | 1014.9 hPa | - | - | - | - |
| 1778079196 | 20.56° C | 100% | 1018.8 hPa | - | - | - | - |
| 1778078623 | 18.89° C | 100% | 1020.9 hPa | - | - | - | - |
* Rain since midnight (hover to see other rain measurements)
** Current wind speed in m/s (hover to see current wind gust speed)